Weather reports worldwide

Advertisment
Leeuwarden, Netherlands (6270): temperature & dewpoint: 09.12.2019 00:00:00 - 15.12.2019 00:00:00 (CET)Leeuwarden, Netherlands (6270): temperature 5cm: 09.12.2019 00:00:00 - 15.12.2019 00:00:00 (CET)Leeuwarden, Netherlands (6270): wind speed & gusts: 09.12.2019 00:00:00 - 15.12.2019 00:00:00 (CET)Leeuwarden, Netherlands (6270): wind direction: 09.12.2019 00:00:00 - 15.12.2019 00:00:00 (CET)Leeuwarden, Netherlands (6270): reduced air pressure: 09.12.2019 00:00:00 - 15.12.2019 00:00:00 (CET)Leeuwarden, Netherlands (6270): visibility: 09.12.2019 00:00:00 - 15.12.2019 00:00:00 (CET)Leeuwarden, Netherlands (6270): precipitation: 09.12.2019 00:00:00 - 15.12.2019 00:00:00 (CET)
Date & Time tt [°C] td [°C] tt 5cm [°C] ff [km/h] ff [kn] fx [km/h] fx [kn] dd ppp [hPa] vv [km] rr [mm]
15.12.2019 00:00:00 5,0 1,0 3,3 16 9 - - SSW 993,3 10 -
14.12.2019 23:00:00 4,3 1,1 3,2 22 12 43 23 WSW 993,5 10 0,0
14.12.2019 22:00:00 5,6 1,3 4,8 34 18 47 25 WSW 993,3 10 0,0
14.12.2019 21:00:00 5,8 0,8 4,5 34 18 54 29 W 992,6 10 0,0
14.12.2019 20:00:00 5,6 1,6 4,6 41 22 54 29 W 991,4 10 0,0
14.12.2019 19:00:00 5,4 1,6 4,6 35 19 50 27 WSW 990,2 10 0,0
14.12.2019 18:00:00 5,0 2,4 4,3 41 22 61 33 W 989,1 6 0,2
14.12.2019 17:00:00 6,5 2,4 5,8 29 16 40 21 W 987,9 10 0,0
14.12.2019 16:00:00 6,5 2,3 5,8 28 15 47 25 WSW 987,0 10 0,0
14.12.2019 15:00:00 6,7 2,5 6,1 34 18 58 31 WSW 986,3 10 0,0
14.12.2019 14:00:00 6,7 2,4 5,3 34 18 72 39 WSW 985,8 10 0,3
14.12.2019 13:00:00 6,6 2,9 6,1 37 20 65 35 W 984,9 10 0,2
14.12.2019 12:00:00 6,5 2,6 5,6 44 24 65 35 WSW 984,1 10 0,2
14.12.2019 11:00:00 4,5 1,9 4,2 37 20 68 37 WSW 983,6 10 0,6
14.12.2019 10:00:00 6,0 2,8 5,2 39 21 61 33 W 982,2 10 1,6
14.12.2019 09:00:00 5,9 3,2 5,0 31 17 43 23 WSW 981,1 10 0,8
14.12.2019 08:00:00 5,3 3,1 4,4 35 19 50 27 WSW 980,2 10 0,2
14.12.2019 07:00:00 4,6 3,7 4,3 21 11 29 16 SSW 979,2 10 0,2
14.12.2019 06:00:00 4,7 4,0 4,4 21 11 36 19 SW 979,0 9 2,5
14.12.2019 05:00:00 4,9 3,9 4,7 26 14 40 21 SW 978,7 8 0,7
14.12.2019 04:00:00 5,1 4,2 4,8 21 11 32 18 SSW 978,3 10 0,3
14.12.2019 03:00:00 5,2 4,6 5,0 21 11 32 18 SSW 978,8 10 0,4
14.12.2019 02:00:00 5,2 4,3 4,9 18 10 25 14 S 979,1 10 0,3
14.12.2019 01:00:00 5,5 4,6 5,2 16 9 32 18 SSW 979,3 10 0,1
14.12.2019 00:00:00 5,8 4,9 5,3 22 12 40 21 SW 979,9 10 1,8
13.12.2019 23:00:00 5,8 4,8 5,3 22 12 29 16 SW 980,0 10 0,6
13.12.2019 22:00:00 5,3 5,1 5,0 13 7 22 12 S 980,2 10 1,0
13.12.2019 21:00:00 4,8 4,7 4,2 11 6 18 10 SSW 980,4 9 0,7
13.12.2019 20:00:00 4,0 3,9 3,4 13 7 22 12 S 980,3 1,7 0,0
13.12.2019 19:00:00 3,8 3,6 3,4 13 7 18 10 S 980,2 3,3 0,2
13.12.2019 18:00:00 3,8 3,4 3,8 11 6 14 8 S 980,1 5 0,1
13.12.2019 17:00:00 3,8 2,8 3,7 9 5 14 8 S 979,6 10 0,0
13.12.2019 16:00:00 3,9 2,5 3,8 9 5 14 8 S 978,8 10 0,0
13.12.2019 15:00:00 3,9 2,4 3,9 8 4 11 6 S 978,0 10 0,0
13.12.2019 14:00:00 3,8 1,9 3,9 9 5 14 8 SSE 977,3 10 0,0
13.12.2019 13:00:00 3,7 1,7 3,8 9 5 18 10 SSE 976,7 10 0,0
13.12.2019 12:00:00 3,5 1,8 3,6 15 8 25 14 SE 975,9 10 0,0
13.12.2019 11:00:00 3,2 1,6 3,1 16 9 25 14 SE 975,5 10 0,0
13.12.2019 10:00:00 2,8 1,5 2,7 16 9 32 18 SE 975,0 10 0,0
13.12.2019 09:00:00 2,8 1,7 2,6 18 10 32 18 SE 974,5 10 0,0
13.12.2019 08:00:00 2,5 1,6 2,3 22 12 36 19 SE 974,3 10 0,0
13.12.2019 07:00:00 2,7 1,6 2,4 28 15 47 25 SE 974,3 10 0,1
13.12.2019 06:00:00 2,4 1,4 2,2 26 14 43 23 SE 974,6 10 0,9
13.12.2019 05:00:00 3,0 1,6 2,8 28 15 50 27 SE 975,0 10 0,5
13.12.2019 04:00:00 3,5 1,7 3,2 29 16 61 33 SSE 975,8 10 0,4
13.12.2019 03:00:00 4,0 1,0 3,7 29 16 50 27 SSE 976,6 10 0,0
13.12.2019 02:00:00 4,0 0,6 3,7 31 17 50 27 SE 977,7 10 0,0
13.12.2019 01:00:00 4,1 0,5 3,6 31 17 47 25 SSE 979,4 10 0,0
13.12.2019 00:00:00 4,0 0,6 3,6 28 15 47 25 SE 981,4 10 0,0
12.12.2019 23:00:00 4,1 0,5 3,6 29 16 47 25 SSE 983,2 10 0,0
12.12.2019 22:00:00 4,0 0,6 3,7 29 16 47 25 SSE 984,9 10 0,0
12.12.2019 21:00:00 3,9 0,5 3,3 29 16 50 27 SSE 986,4 10 0,0
12.12.2019 20:00:00 4,0 0,8 3,2 29 16 50 27 SSE 988,0 10 0,0
12.12.2019 19:00:00 3,8 1,4 3,1 29 16 43 23 SSE 989,5 10 0,0
12.12.2019 18:00:00 3,5 1,6 2,8 26 14 40 21 SSE 990,9 10 0,0
12.12.2019 17:00:00 3,6 1,7 2,8 21 11 36 19 SSE 992,4 10 0,0
12.12.2019 16:00:00 4,0 2,0 3,2 21 11 36 19 SSE 993,7 10 0,0
12.12.2019 15:00:00 4,7 2,5 4,2 22 12 40 21 S 994,9 10 0,0
12.12.2019 14:00:00 4,9 2,9 4,8 24 13 36 19 S 995,8 10 0,0
12.12.2019 13:00:00 5,6 3,6 5,4 21 11 36 19 SSW 996,7 10 0,0
12.12.2019 12:00:00 5,5 3,7 5,8 18 10 32 18 S 997,5 10 0,0
12.12.2019 11:00:00 4,7 3,0 4,6 11 6 22 12 S 998,3 10 0,0
12.12.2019 10:00:00 3,1 2,0 2,4 11 6 22 12 S 998,8 10 0,0
12.12.2019 09:00:00 2,3 1,4 1,1 13 7 22 12 SSW 998,8 10 0,0
12.12.2019 08:00:00 3,9 3,0 3,1 15 8 22 12 SSW 998,8 10 0,0
12.12.2019 07:00:00 4,3 3,7 3,8 15 8 29 16 SW 998,7 10 0,0
12.12.2019 06:00:00 4,3 3,7 3,8 18 10 29 16 SSW 998,7 6 0,0
12.12.2019 05:00:00 4,3 3,8 3,7 16 9 32 18 S 998,8 7 0,0
12.12.2019 04:00:00 5,2 4,5 4,9 18 10 32 18 S 999,1 6 0,0
12.12.2019 03:00:00 5,3 4,6 5,1 18 10 32 18 SSW 999,6 5 0,0
12.12.2019 02:00:00 5,3 4,6 5,0 13 7 29 16 S 999,7 5 0,0
12.12.2019 01:00:00 5,2 4,4 4,9 15 8 29 16 S 1000,4 5 0,0
12.12.2019 00:00:00 5,2 4,6 4,9 15 8 29 16 S 1000,9 5 0,0
11.12.2019 23:00:00 4,7 4,3 4,3 13 7 22 12 S 1001,4 2,9 0,0
11.12.2019 22:00:00 4,0 3,8 3,4 11 6 18 10 S 1002,0 2,3 0,0
11.12.2019 21:00:00 4,3 3,9 3,6 11 6 22 12 S 1002,3 2,6 0,0
11.12.2019 20:00:00 4,7 4,2 3,8 13 7 22 12 S 1002,4 3,5 0,0
11.12.2019 19:00:00 5,0 4,6 4,3 13 7 18 10 S 1002,6 3,9 0,0
11.12.2019 18:00:00 5,3 4,9 4,6 11 6 18 10 S 1002,8 4,7 0,0
11.12.2019 17:00:00 5,1 4,8 4,2 11 6 14 8 S 1003,0 4,9 0,0
11.12.2019 16:00:00 5,3 5,0 4,4 13 7 18 10 S 1003,3 4,9 0,0
11.12.2019 15:00:00 6,5 5,7 6,4 13 7 22 12 SSW 1003,5 8 0,0
11.12.2019 14:00:00 6,9 5,5 7,1 16 9 25 14 SSW 1004,1 7 0,0
11.12.2019 13:00:00 7,6 5,8 7,8 11 6 18 10 SSW 1005,0 10 0,0
11.12.2019 12:00:00 6,5 5,6 6,4 11 6 14 8 SSW 1005,6 10 0,0
11.12.2019 11:00:00 6,0 5,4 5,7 11 6 - - S 1006,2 10 0,0
11.12.2019 10:00:00 5,3 5,0 4,7 11 6 14 8 S 1006,3 8 0,0
11.12.2019 09:00:00 5,4 5,0 4,7 13 7 18 10 S 1006,3 10 0,0
11.12.2019 08:00:00 5,6 5,2 5,0 11 6 18 10 S 1006,4 10 0,0
11.12.2019 07:00:00 5,7 5,4 5,0 11 6 18 10 SSW 1006,4 10 0,0
11.12.2019 06:00:00 6,3 5,8 5,7 11 6 22 12 SSW 1006,2 10 0,0
11.12.2019 05:00:00 6,7 6,4 6,4 13 7 25 14 SSW 1006,0 10 1,0
11.12.2019 04:00:00 6,6 6,1 6,3 18 10 43 23 SSW 1006,1 10 1,2
11.12.2019 03:00:00 6,5 5,8 6,2 35 19 61 33 SSW 1005,8 7 0,3
11.12.2019 02:00:00 7,2 4,9 6,8 39 21 61 33 SSW 1005,3 10 0,0
11.12.2019 01:00:00 6,9 4,1 6,5 35 19 61 33 SSW 1005,6 10 0,0
11.12.2019 00:00:00 6,7 3,3 6,3 37 20 61 33 S 1006,1 10 0,0
10.12.2019 23:00:00 6,5 2,9 6,1 42 23 65 35 S 1006,8 10 0,0
10.12.2019 22:00:00 6,4 2,7 5,8 39 21 61 33 S 1007,5 10 0,0
10.12.2019 21:00:00 5,9 1,9 5,5 39 21 58 31 S 1008,4 10 0,0
10.12.2019 20:00:00 5,6 1,7 5,2 39 21 58 31 S 1009,1 10 0,0
10.12.2019 19:00:00 5,2 2,2 4,7 37 20 54 29 S 1010,6 10 0,0
10.12.2019 18:00:00 5,4 1,9 5,0 35 19 54 29 S 1012,0 10 0,0
10.12.2019 17:00:00 5,2 1,7 4,7 31 17 47 25 S 1013,1 10 0,0
10.12.2019 16:00:00 5,3 1,7 4,7 34 18 54 29 S 1015,0 10 0,0
10.12.2019 15:00:00 5,5 1,8 5,0 34 18 47 25 S 1016,3 10 0,0
10.12.2019 14:00:00 5,7 2,0 5,5 31 17 47 25 S 1017,6 10 0,0
10.12.2019 13:00:00 6,0 2,3 6,3 28 15 50 27 S 1018,8 10 0,0
10.12.2019 12:00:00 5,9 2,6 5,8 24 13 40 21 SSW 1020,2 10 0,0
10.12.2019 11:00:00 5,7 3,4 5,8 18 10 29 16 SSW 1021,3 10 0,0
10.12.2019 10:00:00 3,8 2,2 2,7 16 9 22 12 SSW 1021,5 10 0,0
10.12.2019 09:00:00 1,8 0,7 0,4 13 7 18 10 SSW 1021,7 10 0,0
10.12.2019 08:00:00 2,7 1,2 0,5 9 5 18 10 SSW 1021,8 10 0,0
10.12.2019 07:00:00 3,9 1,4 2,7 9 5 18 10 SSW 1022,0 10 0,0
10.12.2019 06:00:00 2,4 -0,2 1,0 8 4 11 6 SSW 1021,6 10 0,0
10.12.2019 05:00:00 3,3 -1,4 -0,2 9 5 22 12 W 1021,4 10 0,0
10.12.2019 04:00:00 4,7 -1,5 3,3 16 9 22 12 NW 1021,1 10 0,0
10.12.2019 03:00:00 5,5 0,5 4,5 13 7 32 18 WNW 1020,8 10 0,0
10.12.2019 02:00:00 4,9 0,0 3,6 18 10 25 14 NW 1019,9 10 0,0
10.12.2019 01:00:00 5,0 0,2 3,6 21 11 54 29 NW 1018,8 10 0,0
10.12.2019 00:00:00 6,0 -0,1 4,7 22 12 40 21 NW 1018,0 10 0,0
09.12.2019 23:00:00 5,8 -0,7 4,9 29 16 43 23 NW 1016,9 10 0,0
09.12.2019 22:00:00 6,3 0,6 5,6 41 22 50 27 NNW 1015,7 10 0,0
09.12.2019 21:00:00 5,8 0,1 5,2 34 18 54 29 NNW 1014,3 10 0,0
09.12.2019 20:00:00 6,0 -0,3 5,0 35 19 54 29 NW 1012,6 10 0,0
09.12.2019 19:00:00 6,1 0,7 5,4 41 22 54 29 NNW 1011,0 10 0,0
09.12.2019 18:00:00 5,9 1,6 5,4 42 23 61 33 NNW 1009,1 10 0,0
09.12.2019 17:00:00 6,9 1,6 6,0 39 21 58 31 NNW 1006,8 10 0,0
09.12.2019 16:00:00 7,4 3,0 6,7 37 20 65 35 NNW 1004,4 10 0,0
09.12.2019 15:00:00 7,4 3,7 6,5 35 19 61 33 N 1001,8 10 0,3
09.12.2019 14:00:00 7,0 5,0 6,3 44 24 65 35 NNW 999,6 6 0,9
09.12.2019 13:00:00 7,3 5,7 6,7 11 6 40 21 WNW 997,2 10 0,5
09.12.2019 12:00:00 7,8 5,6 7,7 9 5 18 10 W 995,8 10 0,1
09.12.2019 11:00:00 6,3 5,7 5,9 11 6 22 12 SW 994,6 10 0,0
09.12.2019 10:00:00 5,0 4,3 4,6 13 7 25 14 SW 993,4 10 0,1
09.12.2019 09:00:00 4,9 4,1 4,6 18 10 36 19 SSW 992,6 10 0,7
09.12.2019 08:00:00 5,1 4,0 4,5 21 11 43 23 SSW 991,7 10 0,0
09.12.2019 07:00:00 5,8 4,5 5,4 29 16 43 23 SSW 991,0 7 0,4
09.12.2019 06:00:00 6,0 4,9 5,7 28 15 40 21 SSW 990,6 10 0,3
09.12.2019 05:00:00 6,1 4,7 5,5 28 15 40 21 SSW 990,6 10 0,0
09.12.2019 04:00:00 5,3 3,9 4,7 13 7 29 16 SSW 991,0 10 0,3
09.12.2019 03:00:00 6,3 3,9 5,6 24 13 47 25 SW 991,4 10 0,0
09.12.2019 02:00:00 6,7 4,0 5,5 24 13 43 23 SW 991,6 10 0,0
09.12.2019 01:00:00 7,0 4,0 6,0 28 15 40 21 SW 991,8 10 0,0
09.12.2019 00:00:00 6,2 4,0 5,3 22 12 36 19 SW 991,9 10 0,0

tt = temperature
td = dewpoint
tt 5cm = temperature 5cm
ff = wind speed
fx = gusts
dd = wind direction
ppp = reduced air pressure
vv = visibility
rr = precipitation

Next stations